Wind_Speed
27 27 28 29 30 31 31 30 30 30 29 29 28 28 27 27 27 27 26 26 27 27 27 27 28 29 29 29 29 30 30 30 29 29 30 33 34 35 35 35 36 36 35 34 33 31 29 28 27 26 24 22 20 19 19 18 16 14 14 15 16 17 16 16 15 15 15 15 15
28 28 28 29 29 30 29 28 28 29 29 29 29 28 28 28 28 27 27 26 27 27 27 26 26 26 27 28 29 30 31 31 32 32 33 35 35 35 36 36 36 36 35 34 33 32 30 29 28 27 25 22 21 20 20 18 17 17 17 18 18 18 17 16 15 14 14 14 14
29 29 29 29 29 28 27 27 27 28 29 29 29 29 28 28 28 28 27 27 27 27 26 25 25 26 26 27 28 29 30 31 31 32 33 35 35 36 36 36 35 34 34 33 33 32 31 31 29 28 26 25 24 22 20 18 18 19 20 20 20 19 18 17 15 15 14 14 14
28 28 29 29 29 29 29 29 29 30 30 30 29 29 28 28 27 27 26 26 26 26 26 26 25 25 26 26 27 28 29 30 30 30 31 32 33 33 34 33 33 32 32 32 32 32 32 31 30 29 29 28 27 24 22 20 21 22 23 22 21 20 19 17 16 16 16 15 14
26 28 28 29 30 31 31 31 30 30 29 29 28 27 27 27 27 26 25 24 25 25 26 26 25 25 25 25 26 27 28 28 28 29 29 30 30 31 31 31 31 31 31 31 31 31 31 31 31 31 31 31 29 27 25 24 24 26 26 24 23 21 20 18 18 17 17 16 15
25 27 28 29 30 31 31 31 30 29 28 26 25 25 25 26 25 25 24 24 25 25 25 25 25 24 24 24 25 26 27 28 28 29 29 29 30 30 30 30 30 30 30 31 31 31 31 30 31 31 31 31 29 28 27 27 28 29 28 26 24 22 20 19 19 18 17 16 15
24 26 28 29 29 30 30 29 28 27 25 24 24 24 25 25 25 24 24 25 25 25 24 24 25 25 25 25 25 26 27 28 28 29 29 30 30 30 30 30 30 31 31 31 31 31 30 30 31 31 30 30 29 28 28 29 30 30 29 27 24 22 20 19 19 18 17 15 13
22 24 26 28 29 29 29 28 26 24 23 23 24 25 25 25 25 25 25 24 24 24 24 24 25 26 26 26 26 27 27 28 29 29 29 30 30 30 30 31 31 31 32 31 31 30 30 30 31 30 29 29 28 28 30 31 31 30 28 26 23 21 20 19 19 18 16 14 13
20 23 25 27 28 28 28 27 26 24 23 24 24 24 24 24 24 24 24 23 23 23 24 24 26 26 26 26 27 27 28 28 29 29 29 29 30 30 31 31 32 32 31 31 30 30 30 31 30 30 29 29 29 29 30 31 30 29 27 25 23 22 21 20 19 18 16 14 13
19 22 24 26 27 27 27 26 25 24 24 23 23 23 23 24 24 23 23 23 22 23 23 25 25 26 26 26 27 28 28 28 28 29 29 29 30 31 31 31 32 31 31 30 30 30 31 31 30 29 29 29 29 30 30 29 28 27 26 25 25 24 23 21 20 18 17 16 15
18 21 23 25 25 25 25 24 24 23 23 22 22 22 22 23 23 23 23 23 22 23 24 25 26 26 26 27 27 28 28 28 28 28 29 29 29 30 31 31 31 30 30 30 30 31 31 30 29 28 28 28 29 29 28 27 27 27 27 26 26 26 24 23 21 20 19 18 17
16 19 21 23 23 24 23 22 22 22 21 21 21 21 21 22 22 22 22 22 22 23 24 25 26 26 27 27 27 27 27 27 27 27 28 28 28 29 30 30 30 29 29 30 30 30 29 28 27 27 27 27 27 26 26 26 26 27 28 28 27 26 25 24 22 21 20 18 17
14 17 19 21 21 22 21 21 20 20 20 20 20 20 21 21 22 22 22 23 23 23 24 24 25 26 26 27 26 26 26 26 26 26 27 27 28 29 29 28 28 28 28 29 28 27 26 25 25 26 26 26 25 24 25 25 27 28 29 29 28 27 25 24 22 21 19 17 15
13 15 17 19 19 19 19 19 19 18 18 19 19 19 20 21 22 22 23 24 23 23 23 24 25 25 26 26 26 26 26 25 25 25 26 27 28 28 28 28 28 27 27 27 26 25 24 24 24 25 25 25 24 23 24 26 27 29 29 29 28 26 25 23 21 19 17 16 14
11 12 15 16 17 17 17 17 17 17 17 17 18 19 20 21 21 22 23 24 23 23 23 24 24 25 25 25 25 26 25 25 25 26 26 27 28 28 28 27 27 27 26 25 24 22 22 23 24 24 25 24 24 25 25 26 28 28 28 27 26 24 22 21 19 18 16 15 14
8 10 11 13 14 15 16 16 16 16 16 16 17 18 19 20 21 22 22 23 23 23 23 24 24 25 25 24 25 25 25 25 26 26 27 28 28 28 27 26 26 26 25 24 22 22 22 23 24 25 25 26 26 26 27 27 27 27 25 24 22 21 20 19 18 17 16 16 15
5 7 9 10 12 13 14 14 14 15 15 16 16 17 18 19 20 21 22 23 23 23 23 24 24 24 24 24 24 24 25 25 26 27 27 28 27 27 26 26 25 25 25 24 23 22 23 24 25 26 26 27 27 27 26 26 25 24 22 21 20 20 19 18 18 17 16 15 15
4 6 8 9 11 12 13 13 13 14 14 15 16 16 17 19 20 20 21 22 22 23 23 23 23 24 24 23 23 24 25 25 26 27 26 26 26 26 25 25 25 25 25 24 24 24 25 26 26 27 27 27 26 25 24 23 22 21 21 20 19 19 18 18 17 16 15 15 14
6 7 8 10 12 13 13 13 13 14 14 15 15 16 16 18 19 19 20 20 21 22 23 23 22 23 23 23 23 23 23 24 25 25 25 25 25 25 25 25 25 25 25 24 25 25 26 27 27 27 27 26 25 23 22 21 21 20 20 19 18 18 17 16 15 15 14 13 12
7 8 10 11 12 13 13 13 13 14 14 14 15 15 16 17 18 18 19 19 20 21 22 22 22 22 22 22 23 22 22 23 24 24 24 24 24 24 24 25 25 25 25 25 25 26 27 27 27 27 26 24 23 22 21 21 20 19 19 18 17 16 15 14 14 13 12 11 10
8 10 11 11 12 12 13 13 13 14 14 14 15 15 16 16 17 17 18 19 19 20 21 21 22 22 22 22 22 22 22 23 23 23 23 23 23 23 24 24 25 25 25 25 26 26 27 27 26 25 24 23 22 21 21 20 20 19 18 17 16 15 14 13 12 11 10 9 9
10 11 11 12 12 12 12 13 13 14 14 14 15 15 16 16 16 17 18 18 19 20 20 21 21 21 22 22 22 22 22 22 22 22 22 23 23 23 23 24 25 25 26 26 27 27 27 26 25 24 23 22 22 21 21 20 20 19 18 17 15 14 12 11 10 9 9 8 8
10 11 12 12 12 12 12 12 13 14 14 14 15 15 16 16 16 17 17 18 18 19 20 20 20 21 21 22 22 22 23 23 22 22 22 23 23 24 24 25 25 26 26 27 27 27 26 26 25 24 23 22 22 21 21 20 20 19 18 16 15 13 12 10 9 9 8 8 7
11 12 12 12 12 12 12 12 13 14 14 15 15 15 15 16 16 16 17 17 18 18 19 19 20 20 21 21 22 22 23 23 23 23 23 23 24 24 25 26 26 26 27 27 26 26 26 25 24 24 23 22 22 21 20 19 18 17 16 15 14 12 11 10 9 8 8 7 6
13 13 13 13 12 12 12 13 14 14 15 15 15 15 16 16 16 16 17 17 17 18 18 19 19 20 21 21 21 22 22 23 23 24 24 24 24 25 26 26 26 26 25 25 25 25 25 25 25 24 24 23 22 20 19 17 16 15 14 14 13 12 11 10 9 8 7 6 5
15 15 15 14 14 14 14 14 14 14 14 15 15 15 16 16 16 17 17 18 18 18 19 19 19 20 20 21 21 22 22 23 24 24 25 25 26 26 26 26 25 24 24 23 23 23 23 24 24 24 23 22 21 20 18 16 15 14 13 12 11 10 10 9 7 6 6 5 5
17 17 17 15 15 14 14 14 14 14 14 15 15 16 16 17 17 17 18 18 19 19 19 19 19 20 20 21 22 22 23 24 24 25 26 27 27 26 26 25 24 24 23 23 23 23 23 23 23 22 22 21 20 18 17 16 14 13 12 11 10 9 8 7 6 5 5 4 4
18 17 16 15 15 15 15 14 14 14 14 15 16 16 16 17 18 18 19 19 20 20 20 20 20 20 21 21 22 23 24 25 25 26 26 26 26 26 25 24 24 23 23 22 22 22 22 22 21 20 19 18 17 17 16 15 14 13 11 10 9 8 7 6 5 3 2 1 1
17 16 16 16 16 16 15 15 15 15 15 16 16 16 17 17 18 19 19 20 20 20 21 21 21 21 22 23 23 24 25 26 26 26 26 26 26 25 25 25 24 23 23 22 22 21 21 20 19 18 17 16 16 15 15 14 13 12 11 10 8 7 6 4 3 3 3 3 3
17 17 17 17 17 16 16 16 16 16 16 17 17 17 18 18 18 19 19 20 20 21 21 21 22 23 24 25 25 26 26 26 26 26 26 26 26 26 26 25 25 24 22 22 21 21 20 19 17 16 15 15 14 14 14 13 12 11 10 8 7 6 5 5 6 6 5 5 5
18 18 18 18 17 17 16 16 16 17 17 17 18 18 18 18 18 19 19 20 20 21 21 23 24 25 25 26 26 27 27 26 26 26 26 27 26 26 26 26 25 24 22 21 21 20 19 18 17 15 14 14 13 13 13 12 10 9 8 7 7 7 8 8 7 7 6 5 4
18 18 19 18 18 18 17 17 17 18 18 18 18 18 18 19 19 19 20 20 21 22 23 24 25 26 26 27 27 27 27 27 27 27 27 27 27 27 26 25 24 23 22 21 20 19 18 17 16 14 13 13 12 12 11 10 9 8 9 9 9 9 9 8 7 6 6 5 4
18 18 19 19 19 18 18 18 18 18 19 19 19 19 19 19 20 20 20 21 22 23 24 26 26 27 27 27 27 27 27 27 27 26 27 27 28 27 26 24 23 22 21 20 20 19 17 16 14 13 12 12 11 10 9 9 9 10 11 11 10 9 8 7 7 6 5 4 3
18 19 19 19 19 19 18 18 19 19 19 19 19 19 20 21 21 21 21 22 23 24 25 26 27 27 27 27 27 27 26 26 27 27 28 28 28 27 25 24 22 21 20 20 19 17 16 14 13 12 11 10 10 9 10 11 12 12 12 11 10 9 8 7 6 5 4 3 2
19 20 20 20 19 19 19 19 19 20 20 20 20 20 21 22 22 22 23 23 24 25 25 25 26 26 27 27 27 27 26 26 26 27 28 27 27 26 25 24 22 21 20 19 18 16 15 13 12 11 10 10 10 11 12 13 13 12 12 11 10 9 8 7 6 5 4 3 2
19 20 20 20 20 20 20 20 20 20 21 21 21 22 22 22 23 23 24 24 25 26 26 25 26 26 26 27 27 27 27 28 28 28 28 27 26 26 25 23 22 20 19 18 17 15 13 12 11 10 10 11 12 13 14 13 13 12 11 11 10 9 7 6 5 4 4 3 3
19 20 20 20 20 20 20 20 21 22 22 22 22 23 23 23 23 24 25 25 26 26 26 26 27 27 27 27 27 28 28 29 29 28 27 26 25 25 24 23 22 20 19 17 15 13 12 11 11 11 12 13 14 14 14 14 13 12 11 10 9 8 7 6 5 4 4 3 3
19 19 20 20 21 21 21 21 22 22 23 23 23 23 24 24 24 24 25 25 27 27 27 27 28 28 28 28 28 28 28 28 28 27 26 25 25 25 24 23 22 20 18 16 14 12 11 12 12 13 13 14 14 14 14 14 13 12 11 10 8 7 6 6 5 5 4 4 4
19 19 20 20 21 21 21 21 22 22 23 23 23 23 24 24 24 24 24 25 27 28 29 28 28 28 29 29 28 28 27 26 26 26 25 24 24 24 24 23 21 19 16 13 12 12 13 14 14 14 14 14 14 13 13 13 12 11 10 9 8 7 7 6 5 5 5 5 5
19 20 20 20 20 21 21 21 21 22 22 23 23 23 23 23 24 24 24 25 27 28 29 29 29 29 28 28 28 27 26 25 24 24 24 23 23 22 22 21 19 17 14 12 12 13 14 14 14 14 14 13 13 13 12 12 12 11 10 9 8 7 6 6 5 5 4 4 5
19 20 20 20 20 20 21 21 21 21 22 23 23 23 23 23 24 24 25 25 27 28 28 28 28 28 27 27 27 26 25 23 22 22 22 21 21 20 19 18 17 15 13 12 13 13 14 14 14 13 13 13 12 11 11 11 11 10 10 9 8 7 6 5 4 4 4 4 5
Wind_Direction
225 223 223 223 223 221 220 220 221 221 220 219 218 217 216 215 216 217 217 217 216 216 216 216 216 215 214 215 217 219 219 218 218 219 221 221 220 220 221 222 223 222 220 218 217 216 214 210 207 207 209 211 213 210 201 190 181 178 187 203 214 219 219 213 209 208 208 207 206
226 225 225 225 225 224 222 222 221 221 221 221 221 220 219 218 218 219 218 218 218 218 217 215 214 212 213 214 217 217 217 217 214 213 214 217 218 219 221 221 221 220 219 217 215 213 210 206 203 205 209 213 211 201 190 184 180 179 185 199 209 214 215 211 208 205 202 201 200
226 225 224 225 225 224 222 222 222 223 223 223 222 221 220 220 220 221 221 221 220 218 216 213 212 212 213 215 216 215 215 216 211 208 208 210 213 216 217 218 218 218 219 218 215 212 208 205 202 203 207 210 208 201 192 189 187 185 188 197 204 207 206 203 200 199 198 196 195
227 224 223 224 224 223 224 225 226 226 226 225 223 222 221 221 220 220 220 220 219 218 215 214 213 213 214 215 214 213 212 212 209 207 205 206 207 209 211 213 214 214 215 215 212 210 207 203 201 202 205 207 207 206 205 201 192 187 189 195 199 200 198 194 194 193 192 190 189
229 225 222 222 223 225 226 226 226 225 225 225 222 220 220 221 220 219 218 217 216 216 215 214 212 212 213 212 211 210 209 207 206 205 205 204 204 206 207 209 211 211 210 209 207 206 203 202 201 202 204 205 205 209 212 209 194 187 187 191 193 194 192 191 189 187 186 183 180
231 227 224 222 224 226 227 228 228 227 225 223 220 218 219 219 218 217 215 215 215 214 213 211 210 209 209 208 207 205 203 202 202 203 204 204 204 204 206 208 208 206 204 202 202 201 201 201 201 202 201 200 200 205 208 202 189 183 183 184 187 189 189 188 185 183 180 177 177
234 229 226 224 225 226 227 228 229 227 224 222 219 218 218 217 216 215 214 214 214 212 209 207 207 206 205 203 202 200 199 198 199 201 202 203 203 204 204 205 204 202 200 199 199 200 201 202 202 199 197 194 193 194 194 189 182 179 179 180 182 184 184 183 181 181 181 182 184
239 233 229 227 226 227 228 227 226 224 223 222 221 220 218 217 215 214 213 212 211 208 205 204 204 204 202 200 198 197 196 196 197 198 200 202 202 202 202 201 199 197 197 198 199 201 202 202 201 198 195 192 189 186 183 180 178 178 177 176 176 176 177 177 179 183 187 191 189
243 236 232 230 228 228 227 225 223 222 222 222 222 220 218 216 214 212 211 208 206 203 201 201 202 202 200 197 196 195 195 196 196 197 198 200 200 199 198 196 194 193 194 196 199 201 202 201 199 196 194 191 186 181 177 176 176 176 175 172 169 169 171 175 177 180 183 184 178
246 238 233 230 228 227 225 223 222 221 221 221 221 219 217 215 213 210 207 205 202 199 197 198 198 196 194 193 193 194 194 195 195 195 196 197 197 196 194 192 191 191 192 195 197 199 199 197 195 193 191 188 182 176 173 174 175 173 170 166 164 165 167 170 171 171 171 169 163
251 240 234 230 228 226 223 220 219 218 218 218 217 216 213 211 209 206 204 201 196 194 194 196 194 192 190 190 191 192 193 193 194 194 194 193 193 193 192 191 190 191 192 193 194 194 193 192 190 187 184 180 175 171 170 171 170 167 164 162 163 163 164 163 163 162 160 158 155
258 244 236 231 228 224 220 217 215 214 214 214 212 210 208 205 203 201 199 196 192 191 192 193 191 189 188 188 189 190 191 191 192 192 191 189 189 189 189 189 190 190 191 191 191 189 188 187 186 181 176 172 168 166 166 166 165 163 161 161 162 161 159 157 157 156 156 156 156
265 246 236 231 226 222 217 213 211 210 209 208 206 203 201 199 197 196 194 191 189 188 189 190 188 187 187 187 187 186 187 188 188 187 186 186 186 186 186 187 188 189 189 188 188 186 185 184 180 174 168 165 163 162 162 162 162 162 161 160 158 156 154 153 154 155 157 160 163
271 249 236 229 223 217 212 208 206 205 204 202 199 196 193 191 191 190 189 188 186 185 184 184 183 184 185 186 185 185 185 185 185 183 183 183 184 184 184 184 185 186 186 185 184 182 180 177 173 167 163 159 158 159 160 161 161 160 158 156 153 151 151 153 155 159 162 165 168
273 250 236 227 218 211 205 201 199 198 197 194 191 189 186 184 183 184 185 184 185 184 181 179 178 181 183 185 185 184 184 183 181 180 180 180 181 182 182 183 184 184 183 181 178 176 174 169 164 161 158 156 156 157 158 159 158 157 155 153 152 152 154 157 161 165 167 169 168
269 245 231 221 212 204 198 194 192 190 188 185 184 182 179 177 178 180 180 180 181 180 178 177 176 178 180 182 183 183 181 180 179 178 178 179 179 181 182 183 183 182 180 176 172 168 165 162 159 157 156 155 155 155 155 155 154 154 154 155 158 160 162 165 167 169 170 170 167
258 232 219 211 204 197 190 186 184 183 181 179 178 176 174 173 174 176 177 178 176 175 174 175 176 176 177 178 179 179 177 176 177 177 178 178 179 181 182 182 181 178 174 169 165 162 159 157 156 155 155 154 153 152 152 153 154 156 159 162 165 167 168 169 170 170 169 168 166
246 222 208 201 195 189 185 181 179 177 176 175 173 172 172 172 172 172 173 175 174 173 171 172 173 174 174 173 174 175 175 174 175 176 177 178 179 180 179 178 176 173 169 166 162 159 156 154 154 153 153 152 151 151 152 155 158 161 163 165 166 167 167 168 168 167 165 164 165
234 216 201 193 187 184 182 180 177 174 172 172 170 169 169 170 169 168 168 170 172 172 171 170 170 171 172 171 171 171 172 173 173 174 176 177 177 177 175 172 170 169 167 164 159 156 154 153 152 152 152 151 151 153 156 159 161 161 162 162 162 162 162 162 161 160 159 159 161
211 200 190 184 179 177 176 175 172 170 168 168 167 165 164 165 165 164 163 165 168 171 171 169 168 168 169 170 169 168 169 171 172 172 173 174 173 172 170 167 164 163 162 158 154 152 152 152 152 153 153 154 155 157 159 159 158 157 156 156 155 154 154 153 153 153 154 155 159
184 180 177 176 171 168 166 166 165 164 164 163 162 160 159 160 160 160 161 163 166 168 168 168 168 167 166 166 166 165 166 168 169 169 169 169 168 167 166 162 158 156 154 151 150 150 151 153 154 156 157 159 160 159 158 156 153 151 150 148 147 147 148 149 151 153 155 158 164
166 164 163 162 160 158 158 157 157 157 157 157 157 156 156 157 157 159 161 163 164 165 166 166 166 165 164 164 163 163 163 164 165 165 164 163 160 159 158 156 152 150 149 149 150 151 153 155 157 159 161 161 159 157 155 152 150 147 146 145 145 146 149 153 158 160 163 167 173
156 155 153 151 150 150 149 149 150 152 152 153 152 152 152 153 154 157 159 160 161 163 163 163 162 162 163 163 163 162 161 160 160 159 158 156 153 151 150 150 148 147 147 149 151 153 154 156 157 159 159 157 155 153 151 150 148 146 146 146 148 151 156 161 166 169 172 176 182
148 144 143 144 144 144 145 146 147 148 148 148 149 149 149 150 151 153 154 156 157 158 158 158 158 159 160 161 162 161 160 157 154 152 150 149 147 146 146 146 146 147 149 151 154 157 158 157 155 155 154 152 150 149 149 148 147 147 148 150 153 157 161 166 170 174 177 181 189
139 136 136 138 140 143 144 145 145 144 144 144 146 146 146 147 148 149 150 151 152 153 153 153 154 155 156 157 157 158 157 154 150 147 145 144 143 144 145 146 147 148 150 153 157 160 161 160 156 153 150 148 147 146 146 147 148 149 151 154 158 161 164 168 171 175 182 191 207
136 135 135 138 140 141 142 143 143 142 142 142 143 143 144 145 146 147 147 147 147 148 149 149 149 150 152 152 152 152 151 149 148 146 144 143 143 144 145 146 147 149 151 154 157 160 160 159 157 154 150 148 146 145 146 148 150 152 154 157 160 163 166 169 174 184 198 214 231
135 133 134 137 138 139 140 142 143 142 141 142 142 142 143 145 145 144 144 143 144 145 145 145 145 146 148 149 149 147 146 145 145 145 144 144 144 145 146 147 148 149 150 151 153 154 154 154 153 152 149 147 146 147 149 151 153 155 157 159 162 167 173 180 191 204 218 231 245
129 129 131 134 135 136 139 141 141 141 142 143 144 144 145 144 143 143 143 142 143 143 142 142 143 145 146 145 145 144 144 144 143 144 144 145 146 147 147 147 146 145 145 145 145 146 147 148 148 147 147 147 148 150 152 153 155 157 159 163 168 175 182 190 196 198 198 187 145
124 126 129 131 132 134 136 138 138 139 142 144 145 146 145 142 142 142 142 142 142 141 140 141 143 144 143 141 142 142 142 142 143 144 145 145 146 146 145 143 140 138 138 139 139 139 140 142 144 146 147 150 152 153 155 157 158 161 164 169 172 175 174 168 155 136 122 116 115
122 125 128 129 130 131 133 135 137 139 142 143 144 143 142 140 140 141 141 141 141 141 141 142 142 140 139 139 140 140 141 142 144 145 145 145 143 141 139 137 134 132 133 135 136 136 137 140 144 148 152 153 155 156 158 160 163 165 166 164 159 148 134 122 116 114 115 117 120
122 125 127 128 130 131 133 136 139 141 142 142 142 140 139 138 138 139 139 139 139 140 142 142 139 138 137 139 140 140 141 143 144 144 143 140 137 134 133 131 130 131 132 134 135 135 137 141 147 152 156 157 158 160 162 163 162 158 150 138 126 117 113 113 115 116 118 121 125
127 129 130 131 131 133 135 138 140 141 141 141 139 138 136 135 135 136 137 138 138 138 138 138 137 136 137 139 140 141 142 142 141 140 138 135 132 130 129 129 130 132 134 135 135 136 140 145 151 155 157 159 160 161 160 156 146 133 122 115 112 111 113 115 117 118 120 125 132
131 133 133 131 131 133 136 137 138 138 137 136 134 132 132 131 132 132 133 134 135 135 136 136 136 137 138 139 140 140 139 138 136 134 133 131 130 129 129 130 132 135 136 136 136 137 141 146 152 155 157 158 157 153 144 131 119 113 111 111 112 113 113 114 116 118 123 129 136
130 130 129 128 128 129 131 131 131 131 130 128 127 127 128 128 128 128 129 131 133 135 136 137 138 139 140 140 139 137 135 133 132 131 131 131 131 131 131 132 135 137 137 135 134 136 140 145 150 152 152 149 140 128 115 108 106 108 111 114 114 114 114 114 116 118 121 121 120
125 123 122 123 124 124 124 124 125 125 124 123 123 125 126 127 128 128 129 132 133 134 135 136 137 138 137 137 136 134 132 131 131 131 132 133 133 132 132 132 134 136 135 132 132 135 138 142 144 143 139 129 116 106 101 102 106 109 112 114 115 115 116 116 114 111 106 99 90
120 120 120 120 121 121 122 123 123 123 123 122 123 124 126 127 129 131 133 135 135 134 133 133 134 133 132 132 132 131 132 132 132 134 134 134 133 132 132 132 133 133 131 130 131 133 135 135 132 127 118 109 103 100 102 105 109 112 114 116 117 116 115 111 106 100 94 89 81
118 120 120 120 120 120 122 123 124 123 122 123 124 126 128 129 131 134 136 138 136 134 132 132 131 130 130 130 130 131 133 134 134 135 134 133 133 132 131 131 131 130 130 130 130 129 126 120 113 107 102 99 100 103 107 111 115 118 120 120 118 115 111 104 99 96 92 86 73
116 119 121 120 120 121 122 124 124 123 124 125 127 130 131 133 133 136 138 139 136 134 132 131 130 130 130 130 130 131 133 135 135 134 133 132 132 132 131 130 130 130 131 131 128 122 113 105 99 96 95 98 102 108 114 119 123 125 124 121 118 114 108 101 96 92 86 77 61
115 118 120 120 120 121 122 123 124 125 126 128 130 132 133 134 135 136 138 139 137 134 132 131 130 130 131 131 131 131 132 134 135 134 133 132 133 133 132 131 130 131 132 130 122 112 104 99 95 93 94 99 104 111 118 124 127 128 125 121 117 112 105 96 88 80 73 65 54
115 118 119 120 121 122 123 123 124 126 129 130 131 132 133 134 135 136 137 137 136 134 132 131 131 131 132 133 132 132 132 133 135 135 135 135 135 135 135 133 132 132 131 126 117 109 104 99 96 94 95 100 106 112 119 125 128 126 123 118 113 106 98 87 74 64 55 45 34
114 117 118 119 121 122 123 123 125 127 130 131 132 133 134 135 135 135 134 133 133 132 131 131 131 132 133 133 133 133 132 133 135 136 138 137 137 137 136 134 133 132 130 125 118 112 108 103 99 96 97 100 105 111 117 123 125 123 119 114 107 100 93 83 69 54 40 26 14
Height
748 749 750 750 751 751 751 752 752 753 754 754 755 756 757 758 758 759 759 760 760 760 761 762 762 763 764 766 767 768 769 769 768 768 770 773 775 777 778 780 782 784 785 787 789 792 794 797 798 800 801 802 803 803 803 803 804 805 808 811 813 814 815 815 815 816 817 819 820
746 747 748 749 749 749 750 750 751 751 752 752 753 753 754 755 756 757 758 758 758 759 759 760 761 762 763 764 765 766 767 768 767 767 768 771 773 774 776 778 780 781 783 785 787 789 792 795 797 799 800 801 802 802 802 801 802 803 806 809 811 813 814 814 815 816 817 819 820
743 744 746 747 748 748 748 749 749 749 750 750 751 752 752 753 754 755 756 757 757 758 758 760 760 761 762 763 763 764 765 766 767 767 767 768 770 773 774 776 778 780 782 785 787 788 790 793 794 796 798 799 800 800 800 800 800 802 805 807 809 811 812 813 814 815 817 818 820
741 742 743 744 745 745 746 746 747 747 747 748 749 749 750 751 752 753 754 755 756 757 758 758 759 760 761 762 762 763 763 764 766 767 767 768 769 771 773 775 777 779 781 784 786 788 789 791 793 794 795 796 797 797 798 798 799 801 803 805 807 809 810 812 813 814 816 817 818
739 740 741 741 742 743 743 744 744 745 745 746 747 748 749 750 751 752 753 754 755 756 756 757 758 759 759 760 761 762 762 763 765 766 767 768 769 771 773 774 776 779 781 783 786 788 789 791 792 792 793 793 793 794 794 795 797 799 801 803 805 807 808 810 812 813 815 816 817
737 738 738 739 740 741 742 742 743 744 744 745 746 747 748 749 750 751 752 753 753 754 755 756 757 758 758 759 760 761 762 763 764 765 766 768 769 771 773 775 777 778 781 783 785 787 788 790 791 791 791 791 791 791 792 793 794 796 799 801 803 805 807 809 811 813 814 815 815
735 736 737 737 738 739 740 741 742 743 744 745 746 746 747 748 749 750 750 751 752 753 754 755 756 757 757 758 759 760 761 762 763 764 766 767 769 770 772 774 776 778 780 782 783 786 787 789 789 789 789 789 790 790 790 791 793 795 797 799 801 803 805 808 810 813 814 815 814
734 735 735 736 737 738 739 740 741 743 743 744 744 745 746 747 748 748 749 750 751 752 753 754 754 755 756 757 758 759 760 761 763 764 765 767 768 770 772 773 775 777 778 780 782 784 786 787 788 788 788 788 789 789 789 790 792 794 796 798 800 802 804 807 809 812 813 814 814
733 733 734 735 736 737 738 739 740 741 742 743 743 744 745 746 747 748 748 749 750 752 752 753 753 754 756 757 758 759 760 761 762 763 765 766 768 769 771 773 774 776 778 779 782 783 785 786 786 787 787 788 788 788 788 789 791 793 794 796 798 801 804 806 808 810 812 813 814
732 733 733 734 735 735 737 738 739 740 741 741 742 743 744 745 746 747 748 748 750 751 752 752 753 754 756 757 758 758 759 761 762 763 764 766 768 769 771 772 774 775 777 779 781 782 783 784 785 786 786 787 787 788 788 789 790 791 793 795 798 800 803 805 807 809 810 812 813
731 732 732 733 734 735 736 737 738 739 739 740 741 742 743 744 745 746 747 748 749 750 751 752 753 754 755 756 757 758 759 761 762 763 764 766 768 769 771 772 774 775 777 778 780 781 782 783 783 784 785 786 787 787 788 789 790 791 793 795 797 799 802 805 807 808 809 811 812
731 731 732 733 733 734 735 736 737 738 739 739 740 741 742 743 744 745 746 747 748 749 750 751 752 753 755 756 757 758 759 761 762 763 765 767 768 770 771 773 774 775 777 778 779 780 781 781 782 783 784 785 786 787 788 789 790 791 793 795 797 799 801 803 805 806 808 810 812
730 731 731 732 733 734 735 736 737 738 738 738 739 740 741 742 743 744 745 746 748 749 750 751 753 753 754 755 757 758 760 761 762 764 765 767 768 770 772 773 774 775 776 777 778 779 779 780 781 782 783 784 786 787 788 789 790 791 793 795 797 798 800 802 803 805 807 809 812
729 730 731 732 733 733 734 736 737 737 738 738 739 739 740 741 742 743 744 746 747 748 750 751 753 754 755 756 757 758 759 761 762 764 765 767 768 770 771 773 774 775 776 777 778 778 779 780 781 782 783 785 786 788 789 790 791 792 793 794 796 798 799 801 803 805 807 809 811
729 730 731 732 733 733 734 736 737 737 738 738 739 740 740 741 742 743 744 745 747 748 750 751 753 754 755 756 757 758 759 761 762 763 765 767 768 769 771 772 773 774 775 776 778 778 779 780 781 782 783 785 787 788 789 790 791 792 793 794 796 798 799 802 803 805 807 809 811
730 730 732 733 733 734 735 736 737 738 738 739 740 740 741 742 742 743 744 745 747 748 750 751 752 753 755 756 757 758 759 761 762 763 764 766 768 769 770 771 773 773 774 776 777 778 779 780 782 783 784 785 787 788 789 790 791 793 794 795 797 799 800 802 804 805 807 808 810
730 731 732 733 735 735 736 737 737 738 739 739 740 741 742 742 743 743 744 745 747 748 749 751 752 753 754 756 757 758 759 760 762 763 764 766 767 768 770 771 772 773 774 775 777 778 780 781 782 783 784 785 787 788 789 790 792 794 795 797 798 800 801 803 804 805 807 808 809
731 732 733 734 736 736 737 738 738 739 740 740 741 742 743 743 743 744 745 746 747 748 749 751 752 753 754 756 757 758 759 760 762 763 764 766 767 768 769 770 771 773 774 775 777 778 779 781 782 783 785 786 788 789 790 792 793 795 797 798 799 800 802 803 804 805 807 808 809
731 733 734 735 736 737 738 738 739 740 741 742 742 743 744 744 744 745 746 747 748 748 749 751 752 753 755 756 757 758 760 761 762 763 765 766 767 768 769 770 771 773 774 776 777 778 780 781 783 784 785 787 788 790 791 793 794 796 797 798 799 801 802 803 804 805 806 808 809
731 733 734 735 736 737 738 739 740 741 742 743 743 744 745 745 746 746 747 748 748 749 750 751 753 754 755 756 758 759 760 761 763 764 765 766 767 768 769 770 771 773 774 776 778 779 781 782 783 784 786 788 789 790 792 793 795 796 797 799 800 801 803 803 805 806 806 807 809
731 732 733 735 736 737 738 739 741 742 743 743 744 745 746 746 747 747 748 748 749 750 751 752 753 754 755 757 758 759 760 762 763 764 765 766 767 768 769 770 772 773 775 777 778 780 781 783 784 785 787 788 789 791 793 794 795 796 798 799 800 802 803 804 805 806 806 807 808
732 732 733 735 737 738 739 740 741 743 743 744 745 746 747 747 748 748 749 749 750 751 752 753 754 755 756 757 758 759 760 762 763 764 765 766 767 768 770 771 773 774 776 778 779 780 782 783 785 786 788 789 790 792 793 794 795 797 798 799 800 802 803 804 805 806 807 807 808
732 733 734 735 737 739 740 741 743 744 745 746 747 747 748 748 748 749 750 750 751 752 753 754 755 756 757 758 758 759 761 762 763 764 765 767 768 769 771 772 773 775 777 778 779 781 783 784 785 787 788 789 791 792 793 794 795 797 798 799 801 802 803 805 805 806 807 807 808
733 733 734 736 738 740 741 743 744 745 746 747 748 748 748 748 749 750 751 752 752 753 754 755 756 757 758 758 759 760 761 762 763 765 766 768 769 770 772 773 775 776 778 779 780 782 783 784 786 787 788 790 791 793 794 795 796 797 798 800 801 802 803 805 805 806 806 807 808
733 733 735 737 739 741 743 744 746 747 748 748 748 748 748 749 750 751 752 753 753 754 755 756 757 757 758 759 760 761 762 763 764 766 767 768 770 771 773 774 776 777 778 780 781 783 783 785 786 787 788 790 792 793 794 796 797 798 799 800 801 802 803 804 805 805 806 807 807
733 734 736 738 740 743 744 746 747 748 748 748 749 749 749 750 751 752 752 753 754 755 756 756 757 758 759 760 761 762 763 764 765 766 768 769 771 772 774 775 777 778 780 781 782 783 784 786 787 788 789 791 792 793 795 797 798 798 799 800 801 802 803 804 804 805 806 806 806
734 735 737 739 742 744 745 746 747 748 748 749 749 750 750 751 752 753 753 754 754 755 756 757 758 759 760 761 762 763 764 765 766 768 769 770 772 773 775 776 778 779 781 782 783 784 785 787 788 789 790 791 793 794 795 797 798 799 800 801 801 802 803 803 804 804 805 805 806
734 736 738 740 743 744 746 747 748 748 749 750 750 751 752 752 753 753 754 754 755 756 757 758 759 760 761 762 763 764 765 766 768 769 770 771 773 774 776 777 778 780 782 783 784 785 786 788 789 790 791 793 793 795 796 797 798 799 800 801 801 802 803 803 803 804 804 805 805
735 737 739 742 744 745 746 747 748 749 750 751 751 752 753 753 753 754 754 755 756 757 758 758 759 761 762 763 764 765 766 768 768 770 771 773 774 775 777 778 780 781 783 784 785 786 788 789 790 791 793 793 794 795 796 797 798 799 800 800 801 802 802 803 803 803 804 804 805
737 738 741 743 744 746 747 748 749 750 751 752 752 753 753 754 755 755 756 756 757 757 758 759 760 761 763 764 765 766 768 769 770 771 772 773 775 777 778 779 781 783 784 785 786 788 789 790 791 792 793 794 795 796 797 798 798 799 799 800 801 801 802 802 803 803 803 804 804
739 740 742 743 745 746 748 748 749 751 752 752 753 754 754 755 756 756 757 757 758 758 759 760 761 762 763 765 766 768 769 770 772 773 774 775 776 778 779 781 783 784 785 787 788 789 790 791 792 793 793 794 795 796 797 798 798 799 799 800 800 801 801 802 802 803 803 803 804
741 742 743 744 746 747 748 749 750 751 752 753 754 754 755 756 756 757 758 758 759 759 760 761 762 763 765 767 768 769 770 772 773 774 775 776 778 779 781 782 784 785 787 788 789 790 790 791 792 793 794 795 796 797 797 798 798 798 799 800 800 801 801 802 802 803 803 803 804
743 743 744 745 747 748 749 750 751 752 753 753 754 755 756 756 757 758 759 759 760 761 762 763 764 765 766 768 769 770 772 773 774 775 777 778 779 780 782 783 785 786 788 788 789 790 791 792 793 794 795 796 796 797 797 798 798 798 799 800 800 801 801 802 802 802 803 803 804
744 745 746 747 748 749 750 751 752 753 753 754 755 756 757 758 758 759 760 761 762 763 764 764 765 766 768 769 770 771 773 774 776 777 778 779 780 782 783 784 786 788 788 789 790 791 792 792 793 794 795 796 796 797 797 797 798 798 799 800 800 801 801 802 802 803 803 803 804
745 746 747 748 749 750 751 752 753 754 755 756 757 758 758 759 760 761 762 763 763 764 765 766 767 768 769 771 772 773 774 775 777 778 779 780 781 783 784 785 787 788 789 790 791 791 792 793 794 795 795 796 796 796 797 797 798 798 799 800 800 801 801 802 803 803 803 803 803
747 747 748 749 750 751 752 753 754 755 756 757 758 759 759 760 761 762 763 763 764 765 766 768 769 770 771 772 773 774 775 777 778 779 780 782 782 783 785 786 788 789 790 791 791 792 793 794 794 795 795 795 796 796 797 798 798 799 799 800 801 801 802 802 803 803 803 803 803
748 749 749 750 752 753 753 754 755 756 757 758 759 760 761 762 763 763 764 764 765 766 767 768 770 771 772 773 775 776 777 778 779 780 782 783 783 784 786 787 789 790 791 792 792 793 793 794 794 795 795 795 796 796 797 798 798 799 800 801 801 802 802 802 803 803 803 803 803
750 750 751 752 753 754 755 755 756 757 758 759 760 761 762 763 763 764 765 765 766 767 768 769 771 772 773 774 776 777 778 779 780 781 782 783 784 785 786 788 789 791 792 792 793 793 794 794 795 795 795 795 796 797 797 798 799 800 800 801 801 802 802 803 803 803 803 803 803
752 753 753 754 754 755 756 757 758 758 759 760 761 762 763 763 764 765 766 767 767 768 769 770 772 773 774 775 776 778 779 780 781 782 783 784 786 786 787 788 790 791 792 793 793 793 794 794 795 795 795 796 796 797 798 798 799 800 800 801 802 802 802 803 803 803 803 803 803
754 754 755 756 756 757 758 758 759 760 761 761 762 763 764 765 766 767 767 768 768 769 770 771 773 774 775 776 777 778 780 782 783 783 784 785 787 787 788 789 790 791 792 793 793 794 794 794 795 795 796 796 797 798 798 799 799 800 801 801 802 802 802 803 803 803 803 803 803
756 756 757 757 758 759 759 760 761 762 762 763 763 764 765 766 767 768 768 769 770 771 772 773 774 775 776 778 778 780 781 783 784 785 786 787 788 788 789 790 791 792 793 793 794 794 794 795 795 796 796 797 798 798 798 799 799 800 801 801 802 802 802 802 803 803 803 803 803